Regional Weather Roundup
Issued by NWS Pendleton, OR

Home | Current Version | Previous Version | Text Only | Print | Product List | Glossary On
Versions: 1 2 3 4 5 6 7 8 9 10 11 12 13 14 15 16 17 18 19 20 21 22 23 24 25 26 27 28 29 30 31 32 33 34 35 36 37 38 39 40 41 42 43 44 45 46 47 48 49 50
016
ASUS46 KPDT 060925
RWRPDT
PENDLETON REGIONAL WEATHER ROUNDUP
NATIONAL WEATHER SERVICE PENDLETON OREGON
100 AM PST SAT FEB 6 2016

NOTE: FAIR INDICATES FEW OR NO CLOUDS BELOW 12,000 FEET WITH NO
SIGNIFICANT WEATHER AND/OR OBSTRUCTIONS TO VISIBILITY.

# INDICATES UNOFFICIAL STATION AND DATA

WAZ520-061010-
EAST SLOPES OF WASHINGTON CASCADES

CITY            SKY/WX      TMP DP  RH  WIND    PRES   REMARKS
#BUMPING DAM    N/A         32  N/A N/A S1      N/A
#CLE ELUM HS    N/A         36  34  92  W2      30.13R
#CLE ELUM 2NW   N/A         35  34  96  W2      N/A
#CLE ELUM LAKE  N/A         33  32  96  NW5     30.22F
#CLIFFDEL 2NW   N/A         33  29  85  CALM    N/A
#GLENWOOD       N/A         37  34  89  S1      30.34R
#MANASTASH CYN  N/A         31  25  78  CALM    30.14R
#NELSON 3SW     N/A         32  31  96  CALM    30.43S
#NILE           N/A         35  31  85  CALM    29.50R
#RONALD 2NW     N/A         35  N/A N/A W1      30.01R
#TEANAWAY 4NE   N/A         35  34  96  CALM    N/A
#TROUT LAKE 1NE N/A         34  32  92  CALM    30.35R
#TROUT LAKE 1E  N/A         34  33  96  CALM    30.24R
$$

WAZ521-061010-
SIMCOE HIGHLANDS

CITY            SKY/WX      TMP DP  RH  WIND    PRES   REMARKS
#BICKLETON HS   N/A         36  29  75  W15G28  N/A    WCI 27
#CENTERVILLE 1SWN/A         39  35  85  W2      30.28R
#GOLDENDALE     N/A         41  37  86  SW13    N/A    WCI 34
#GOLDENDALE 1NE N/A         40  30  67  SW2     N/A
#GOODNOE HILLS  N/A         43  35  73  W24     30.18R WCI 34
#LYLE 6NE       N/A         42  37  82  W15G28  30.29R WCI 34
$$

WAZ026-061010-
KITTITAS VALLEY

CITY            SKY/WX      TMP DP  RH  WIND    PRES   REMARKS
ELLENSBURG AP   PTCLDY      37  31  79  NW16    30.17R WCI 28
#ELLENSBURG CWU N/A         36  33  89  N8      30.19R
#ELLENSBURG 3NE N/A         35  32  89  NW7     30.17R
#ELLENSBURG     N/A         40  38  92  NW7     N/A
#ELLENSBURG 1E  N/A         30  N/A N/A CALM    N/A
#KITTITAS 4N    N/A         36  31  82  NW13    30.19R WCI 27
#KITTITAS 3S    N/A         23  22  96  N7      30.24R
#THORP 6N       N/A         35  33  92  N9      30.27R
$$

WAZ027-061010-
YAKIMA VALLEY

CITY            SKY/WX      TMP DP  RH  WIND    PRES   REMARKS
SUNNYSIDE AP    CLEAR       44  32  62  SW15    30.24R WCI 37
YAKIMA AIRPORT  CLEAR       45  26  47  W13     30.22R WCI 39
YAKIMA-VAGABOND CLEAR       42  28  57  SW8     30.19R
#DONALD 2NE     N/A         42  24  48  CALM    29.08R
#GRANDVIEW      N/A         42  32  67  W2      30.29R
#MABTON         N/A         43  36  76  SW5     30.25R
#MOXEE 2E       N/A         42  25  51  E2      30.19R
#NACHES 2SW     N/A         40  34  79  W15G26  30.17R WCI 32
#OUTLOOK DOT    N/A         N/A N/A N/A W7      N/A
#SELAH 8E       N/A         38  27  64  W10     N/A
#TERRACE HTS    N/A         42  32  67  NW5     30.23R
#TOPPENISH      N/A         45  32  60  CALM    30.18R
#WEST VALLEY    N/A         43  30  60  SW2     30.24R
#W YAKIMA       N/A         42  31  65  W1      30.26R
#WHITE SWAN 5E  N/A         45  34  65  SW13    30.27R WCI 39
#WILEY CITY 3W  N/A         39  25  57  CALM    30.18R
$$

WAZ028-061010-
LOWER COLUMBIA BASIN...WASHINGTON

CITY            SKY/WX      TMP DP  RH  WIND    PRES   REMARKS
PASCO           PTCLDY      49  36  61  SW18G28 30.26R WCI 43
PROSSER AWOS    N/A         45  34  65  S13     30.29R WCI 39
RICHLAND AWOS   PTCLDY      50  35  56  S14     30.27R
#BENTON CITY    N/A         49  34  56  W20G33  30.17R WCI 42
#CONNELL 5N     N/A         43  37  79  W10     30.22R
#ELTOPIA 6NW    N/A         46  36  68  SW14G26 29.19R WCI 40
#KAHLOTUS       N/A         46  37  71  NW24    30.22R WCI 38
#KENNEWICK 3S   N/A         46  39  76  N7      30.27R
#PATERSON       N/A         46  38  73  W8      30.28R
#PROSSER        N/A         48  32  54  W10     30.27R
#SAGEMOOR 2W    N/A         46  40  79  W5      30.11R
#TOUCHET 2S     N/A         50  38  63  W17G26  30.25R
#WEST PASCO     N/A         49  37  63  S8      30.28R
$$

WAZ029-061010-
FOOTHILLS OF THE BLUES...WASHINGTON

CITY            SKY/WX      TMP DP  RH  WIND    PRES   REMARKS
WALLA WALLA AP  CLOUDY      48  37  65  S20     30.26R WCI 41
#CLYDE 6NW      N/A         47  36  65  SW21G30 30.23R WCI 39
#DAYTON SCHOOL  N/A         48  33  56  S12G28  30.23R WCI 43
#LOWDEN 2SE     N/A         50  39  66  SW7     30.24R
#PLEASANT VIEW 1N/A         44  39  82  SW15    30.25R WCI 37
#PRESCOTT       N/A         48  40  74  SW8     30.23R
#WHITMAN COLLEGEN/A         49  39  68  S12     30.32R WCI 44
#WAITSBURG 5S   N/A         45  38  76  S17G26  30.34R WCI 38
#WAITSBURG 8N   N/A         44  18  35  S17G25  30.06S WCI 36
#WALLA WALLA 5E N/A         49  39  68  SW16    N/A    WCI 43
#WALLA WALLA U  N/A         51  39  63  S8      30.28R
#WHITMAN MISSIONN/A         50  40  68  S10     30.29R
$$

WAZ030-061010-
BLUE MOUNTAINS...WASHINGTON

CITY            SKY/WX      TMP DP  RH  WIND    PRES   REMARKS
#DIXIE 5SE      N/A         42  34  73  SW14    30.16S WCI 35
#SKI BLUEWOOD   N/A         35  32  89  NE6     30.19F
$$

ORZ009-041-WAZ024-061010-
COLUMBIA RIVER GORGE

CITY            SKY/WX      TMP DP  RH  WIND    PRES   REMARKS
HOOD RIVER AP   MOCLDY      43  37  79  SW5     30.33R
THE DALLES AP   CLEAR       48  34  58  W9      30.31R
#ARLINGTON AIRPON/A         45  36  70  W10     30.32R
#ARLINGTON HS   N/A         48  36  63  NE6     30.22R
#CELILO DOT     N/A         47  32  56  SW3     N/A
#LYLE           N/A         47  42  83  W9      30.33R
#MARYHILL 2W    N/A         44  38  79  SW1     N/A
#MOSIER 1S      N/A         45  27  49  NW15    30.32R WCI 38
#RUFUS DOT      N/A         48  37  65  CALM    N/A

$$

ORZ510-061010-
NORTH CENTRAL OREGON

CITY            SKY/WX      TMP DP  RH  WIND    PRES   REMARKS
#CHENOWITH 1W   N/A         41  33  73  W32G40  N/A    WCI 29
#COW CYN RST AREN/A         40  31  70  SW3     N/A
#DUFUR 9E       N/A         40  31  70  NW6     30.35R
#GRASS VALLEY 1SN/A         40  34  79  SW21    30.32R WCI 30
#KENT DOT       N/A         37  29  72  N8      N/A
#MAUPIN SCHOOL  N/A         48  36  63  SW3     30.33R
#MORO SCHOOL    N/A         39  37  92  W3      30.29R
#SHANIKO 4NW    N/A         36  32  85  S3      30.26R
#TYGH VALLEY 2NEN/A         42  34  73  SW2     30.31R
#WAPANITIA AIRPON/A         42  34  73  W8      30.32R
#WASCO DOT      N/A         38  31  76  SW8     N/A
#WASCO 5NE      N/A         39  33  79  SW3     30.33R
$$

ORZ511-061010-
CENTRAL OREGON

CITY            SKY/WX      TMP DP  RH  WIND    PRES   REMARKS
BEND AIRPORT    MOCLEAR     43  36  76  SW18    30.30F WCI 35
MADRAS AIRPORT  CLEAR       43  32  65  SW12    30.32R WCI 37
PRINEVILLE AP   MOCLDY      37  32  82  S6      30.31R
REDMOND AIRPORT MOCLDY      40  32  73  NE5     30.29S
#ASHWOOD SCHOOL N/A         45  34  65  S7      30.23S
#BEND 6E        N/A         43  33  67  CALM    30.28S
#BEND 1SW       N/A         39  35  85  W3      N/A
#BEND-KIM LN    N/A         42  36  79  S6      30.26S
#LAKE BILLY CHINN/A         43  N/A N/A E9      30.35S
#MADRAS         N/A         44  34  68  S14     N/A    WCI 37
#POWELL BUTTE 3EN/A         42  34  73  NW7     N/A
#PRINEVILLE 3N  N/A         40  34  79  S1      30.34R
#WARM SPRINGS   N/A         41  34  76  CALM    30.26R

$$


ORZ509-061010-
EAST SLOPES OF OREGON CASCADES

CITY            SKY/WX      TMP DP  RH  WIND    PRES   REMARKS
SISTERS AWOS    N/A         43  36  76  W12     30.22S WCI 37
#BLUE BOX PASS  N/A         33  N/A N/A NW3     N/A
#BLACK BUTTE RNCN/A         38  35  89  W1      30.35R
#CAMP SHERMAN   N/A         37  32  82  CALM    30.41F
#LA PINE DOT    N/A         40  30  67  S6      N/A
#LA PINE 4NW    N/A         40  32  73  CALM    30.43F
#LAVA BUTTE DOT N/A         39  30  70  SW2     N/A
#SISTERS AIRPOR N/A         42  39  89  N3      30.17S
#SISTERS ODOT   N/A         42  N/A N/A W3      N/A
#SISTERS 3N     N/A         40  31  70  N3      30.26S
#SUNRIVER       N/A         37  34  89  S1      30.39S
#SUTTLE LK DOT  N/A         N/A N/A N/A NE8     N/A
#TUMALO 3W      N/A         39  32  76  E1      30.18R
#WANOGA BUTTE D N/A         34  31  89  W18     N/A    WCI 23

$$

ORZ044-061010-
LOWER COLUMBIA BASIN...OREGON

CITY            SKY/WX      TMP DP  RH  WIND    PRES   REMARKS
HERMISTON       CLOUDY      48  37  65  SW8     30.28R
#BOARDMAN SCHOOLN/A         46  39  76  CALM    30.30R
#BOARDMAN 8SW   N/A         45  38  76  SW12    30.30R WCI 39
#ECHO 8SW       N/A         44  36  73  SW1     30.30R
#I-84 EX 198 DOTN/A         46  38  73  E15     N/A    WCI 40
#IONE SCHOOL    N/A         49  29  46  W7      30.25R
#IRRIGON 4NW    N/A         45  41  86  SW5     N/A
#UMATILLA SCHOOLN/A         44  42  93  CALM    30.29R
#UMATILLA       N/A         45  35  68  SW2     30.24R
$$

ORZ507-061010-
NORTHERN FOOTHILLS OF THE BLUES

CITY            SKY/WX      TMP DP  RH  WIND    PRES   REMARKS
PENDLETON AIRPT CLOUDY      45  36  70  SE6     30.28R
#ADAMS 3WNW     N/A         43  38  82  SW9     30.30R
#ATHENA         N/A         44  37  76  S7      30.31F
#CAYUSE         N/A         46  38  73  SW10    30.29F
#HELIX SCHOOL   N/A         43  39  86  S12     30.29R WCI 37
#HELIX 3N       N/A         42  38  86  SW21    30.22R WCI 33
#HOLDMAN 5SE    N/A         43  40  89  CALM    30.33S
#HOLDMAN 6E     N/A         43  37  79  N14     30.09R WCI 36
#M-F GROVE ELEM N/A         49  36  61  S2      30.25R
#M-FREEWATER 5SEN/A         48  37  65  CALM    30.27S
#PDT AQUATIC CTRN/A         47  30  51  SW6     30.28S
#PDT SUNRIDGE   N/A         46  38  73  SW2     30.31R
#PENDLETON 7NW  N/A         45  38  76  W7      26.60S
#PILOT ROCK     N/A         45  33  63  CALM    30.28R
#TUTUILLA       N/A         45  38  76  CALM    30.31R
#UMAPINE 2E     N/A         49  40  71  S7      30.25R
#WESTON SCHOOL  N/A         44  35  70  SW8     30.22F

$$

ORZ508-061010-
SOUTHERN FOOTHILLS OF THE BLUES

CITY            SKY/WX      TMP DP  RH  WIND    PRES   REMARKS
LEXINGTON       CLOUDY      46  39  76  W8      30.32R
#CONDON SCHOOL  N/A         41  36  82  SW6     30.21R
#CONDON 5W      N/A         38  31  76  W10     30.25R
#FOSSIL SCHOOL  N/A         40  34  79  CALM    30.22R
#HEPPNER EOC    N/A         40  36  85  CALM    30.22R
#HEPPNER 4NE    N/A         39  37  92  SW2     30.27R
#LEXINGTON 2SE  N/A         45  39  79  S5      30.24R
#MIKKALO        N/A         42  34  73  CALM    30.38R
#OLEX 4N        N/A         43  38  82  SW5     30.27R
#RUGGS 5NE      N/A         39  37  92  SW6     30.40S
#RUGGS 2SW      N/A         41  35  79  W7      30.30R

$$

ORZ502-503-061010-
BLUE MOUNTAINS

CITY            SKY/WX      TMP DP  RH  WIND    PRES   REMARKS
MEACHAM         CLOUDY      37  32  82  CALM    30.28R
#BATTLE MTN DOT N/A         38  28  67  S8      N/A
#HEPPNER 15SE   N/A         38  30  73  W2      30.16R
#LADD CYN SMT   N/A         36  27  69  SE18    N/A    WCI 26
#LADD CREEK ODOTN/A         38  20  48  SW8     N/A
#LONG CREEK HS  N/A         45  31  58  CALM    N/A
#N POWDER DOT   N/A         35  30  82  S16     N/A    WCI 25
#PIKES PEAK     N/A         39  32  76  S25G33  27.99S WCI 28
#TOLLGATE       N/A         31  30  96  S1      30.06F
#TROY SCHOOL    N/A         36  33  89  CALM    30.16S
#UKIAH          N/A         34  28  78  CALM    30.26R
#WESTON 4E      N/A         38  35  89  S7      30.28F
$$

ORZ505-061010-
JOHN DAY BASIN

CITY            SKY/WX      TMP DP  RH  WIND    PRES   REMARKS
JOHN DAY        CLOUDY      47  27  45  S18     30.31R WCI 40
#DAYVILLE SCHOOLN/A         51  25  36  S7      30.24R
#MITCHELL       N/A         43  32  65  CALM    30.42S
#MITCHELL 8NW   N/A         46  30  53  CALM    30.49S
#MONUMENT HS    N/A         40  31  70  CALM    30.18S
#MT. VERNON 5SE N/A         38  28  67  SE7     30.27S
#SPRAY SCHOOL   N/A         48  N/A N/A CALM    N/A
#WINLOCK        N/A         45  32  60  SE7     30.22R
$$

ORZ506-061010-
OCHOCO AND JOHN DAY HIGHLANDS

CITY            SKY/WX      TMP DP  RH  WIND    PRES   REMARKS
#HORSE RIDGE DO N/A         44  31  60  SW8     N/A
#KEYES SMT DOT  N/A         41  27  57  S25G33  N/A    WCI 31
#PAULINA SCHOOL N/A         46  30  53  CALM    30.23R
#PINE MTN OBS   N/A         35  31  85  S7G28   N/A
#PRAIRIE CITY   N/A         37  28  70  CALM    30.29R
#SENECA         N/A         36  N/A N/A W14     N/A    WCI 27
#SENECA 9NW     N/A         30  27  88  CALM    30.46S
$$

ORZ049-061010-
GRANDE RONDE VALLEY

CITY            SKY/WX      TMP DP  RH  WIND    PRES   REMARKS
LA GRANDE       CLOUDY      41  28  59  S23G32  30.29F WCI 31
#COVE           N/A         44  33  65  S3      30.28R
#COVE SCHOOL    N/A         45  32  60  E6      30.27R
#COVE 6NW       N/A         39  32  76  S12G25  30.19R WCI 32
#ELGIN 3N       N/A         40  28  62  S14     30.24R WCI 32
#ELGIN 1E       N/A         40  32  73  S1      N/A
#IMBLER SCHOOL  N/A         38  32  79  S22     30.22F WCI 27
#ISLAND CITY 4N N/A         40  39  96  CALM    30.38R
#LADD CYN DOT   N/A         40  32  73  S21     N/A    WCI 30
#UNION 1S       N/A         40  33  76  S10G24  30.30S
$$

ORZ050-061010-
WALLOWA COUNTY

CITY            SKY/WX      TMP DP  RH  WIND    PRES   REMARKS
JOSEPH AIRPORT  PTCLDY      28  28  100 N5      30.25S
#ENTERPRISE AP  N/A         30  28  92  CALM    30.16S
#ENTERPRISE HS  N/A         31  30  96  CALM    30.23F
#IMNAHA SCHOOL  N/A         49  32  52  S16G30  30.26R WCI 43
#JOSEPH 3N      N/A         28  24  85  CALM    30.23F
#JOSEPH 3W      N/A         32  24  72  SW3     30.04S
#LOSTINE        N/A         30  29  96  S3      30.16F
#MT HOWARD 8000 N/A         30  24  78  W21G37  30.17F WCI 17
#PROMISE 1S     N/A         36  30  79  E10     30.40F
#WALLOWA SCHOOL N/A         31  30  96  SE1     30.20F



$$



USA.gov is the U.S. government's official web portal to all federal, state and local government web resources and services.